Regional Weather Roundup
Issued by NWS Albany, NY

Current Version | Previous Version | Text Only | Print | Product List | Glossary Off
Versions: 1 2 3 4 5 6 7 8 9 10 11 12 13 14 15 16 17 18 19 20 21 22 23 24 25 26 27 28 29 30 31 32 33 34 35 36 37 38 39 40 41 42 43 44 45 46 47 48 49 50
000 ASUS41 KALY 211310 RWRALY NEW YORK STATE HOURLY WEATHER ROUNDUP NATIONAL WEATHER SERVICE ALBANY NY 900 AM EDT SAT JUL 21 2018 NOTE: "FAIR" INDICATES FEW OR NO CLOUDS BELOW 12,000 FEET WITH NO SIGNIFICANT WEATHER AND/OR NO OBSTRUCTIONS TO VISIBILITY. NYZ032-033-038>043-046>054-057>066-NYZ062>081-082-084-211400- EAST CITY SKY/WX TMP DP RH WIND PRES REMARKS ALBANY PTSUNNY 72 58 61 VRB6 30.13R GLENS FALLS FAIR 70 58 65 S7 30.13S POUGHKEEPSIE FAIR 70 61 73 E7 30.10S NEWBURGH MOSUNNY 70 63 78 E12 30.12S MONTGOMERY FAIR 70 63 78 VRB6 30.11R WHITE PLAINS FAIR 70 58 65 SE14 30.11R ISLIP FAIR 72 56 57 E12 30.10F NEW YORK CITY PTSUNNY 74 57 55 E14 30.09R CENTRAL PARK FAIR 72 58 61 CALM 30.12R $$ NYZ005>009-017-018-044>046-055-056-211400- CENTRAL CITY SKY/WX TMP DP RH WIND PRES REMARKS FULTON FAIR 70 55 59 SE9G18 30.03F SYRACUSE PTSUNNY 70 60 70 SE18 30.04F ROME FAIR 69 57 65 E10 30.11S ELMIRA FAIR 69 60 73 SE7 30.04R BINGHAMTON FAIR 63 57 81 SE13 30.09R MONTICELLO PTSUNNY N/A N/A N/A E8 30.14R $$ NYZ026>034-041>043-087-211400- NORTH CITY SKY/WX TMP DP RH WIND PRES REMARKS WATERTOWN FAIR 72 56 57 SE9 30.04S FORT DRUM NOT AVBL OGDENSBURG FAIR 75 58 55 S6 30.07S MASSENA FAIR 76 63 64 VRB3 30.09S SARANAC LAKE FAIR 71 55 56 E6 30.13S PLATTSBURGH FAIR 74 59 59 S10 30.11S $$ NYZ001>004-010>016-019>021-085-211400- WEST CITY SKY/WX TMP DP RH WIND PRES REMARKS NIAGARA FALLS PTSUNNY 74 59 59 S13 29.91R BUFFALO PTSUNNY 74 60 61 S13 29.92R DUNKIRK PTSUNNY 74 60 61 SE12 29.89S JAMESTOWN FAIR 69 60 73 S13G22 29.94S WELLSVILLE CLOUDY 67 61 81 S9G18 30.03R ROCHESTER FAIR 74 60 61 S15G22 29.97S PENN YAN PTSUNNY 68 58 70 S13 30.03R $$ KEY WCI = WIND CHILL INDEX VSB = VISIBILITY HX = HEAT INDEX $$

USA.gov is the U.S. government's official web portal to all federal, state and local government web resources and services.